RH
47 46 47 43 39 38 37 32 33 58 57 55 56 56 57 58 57 58 61 64 64 62 60 58 57 57 56
51 50 47 45 42 38 32 27 34 42 53 51 54 55 54 56 56 59 64 64 64 61 60 59 59 59 59
52 48 48 42 40 36 34 32 26 40 40 40 49 52 56 57 58 62 64 65 64 61 60 60 61 61 60
50 48 43 47 40 38 34 32 31 29 34 35 42 46 47 53 53 58 64 66 63 62 62 62 62 61 62
49 47 43 41 40 41 36 35 31 36 37 33 35 37 37 43 45 60 65 63 64 64 65 64 63 62 65
47 42 43 41 40 41 41 40 36 32 43 39 36 37 37 38 56 61 62 63 65 66 67 66 64 65 64
44 41 42 43 46 46 49 53 48 41 47 45 37 40 39 38 53 57 61 64 65 66 67 67 67 66 65
43 44 44 47 47 48 52 53 46 42 48 61 43 44 44 41 48 55 61 62 64 66 67 68 68 68 67
59 61 62 62 55 45 56 65 58 45 44 56 50 53 50 45 40 54 56 58 62 66 66 68 68 68 62
52 53 50 58 60 53 56 72 67 63 49 67 63 63 70 47 50 45 45 54 62 63 64 65 67 62 65
39 42 44 49 52 54 55 62 78 74 52 67 81 72 76 69 56 50 49 54 53 54 60 63 67 66 68
44 49 55 59 59 59 59 60 59 65 56 59 86 83 90 84 73 59 62 61 59 61 60 63 65 67 68
58 63 64 65 64 67 63 59 62 59 54 59 71 83 91 88 87 77 78 69 56 65 65 66 67 66 68
63 66 69 73 71 72 79 77 82 72 63 61 65 70 84 79 83 86 78 85 71 69 67 68 65 59 56
73 75 74 76 76 78 82 83 85 80 78 71 66 67 73 78 88 76 73 77 74 75 74 76 69 60 55
74 75 80 83 83 82 82 85 85 79 78 77 78 85 80 68 58 77 78 79 78 76 75 82 78 66 60
81 83 84 84 84 84 83 82 81 78 79 77 83 91 89 89 67 59 84 83 80 80 76 82 86 76 65
Wind_Speed
4 6 4 1 1 3 4 5 4 7 10 12 12 12 13 14 15 16 16 17 20 21 22 22 23 24 26
8 5 4 1 2 4 4 4 4 5 10 11 10 10 11 13 15 15 14 17 19 20 22 23 24 26 26
6 4 3 1 0 2 3 5 2 5 9 9 9 10 12 14 15 14 15 19 20 21 21 23 25 25 26
7 5 3 3 1 4 3 3 3 5 8 7 9 10 11 15 15 16 18 19 21 22 23 23 24 25 26
6 5 4 3 3 3 3 5 3 3 8 6 6 7 7 11 13 18 19 20 21 23 23 24 24 25 26
5 5 5 4 2 2 3 4 4 4 8 8 6 8 8 9 17 18 19 22 24 23 24 24 24 25 26
8 6 6 4 3 2 2 1 3 5 7 7 8 9 9 10 15 18 21 23 23 24 24 25 24 25 26
8 7 6 4 4 2 1 4 4 3 4 4 9 11 11 9 13 19 22 22 22 24 25 24 25 25 26
12 12 10 6 3 1 2 3 2 2 0 5 5 9 11 8 9 20 22 21 25 26 26 26 26 26 16
8 8 7 5 4 3 2 2 3 3 2 5 7 8 6 6 11 10 10 20 25 25 25 26 27 13 12
6 5 4 3 2 1 1 3 3 4 2 4 5 7 6 9 10 9 10 12 12 13 20 24 26 22 13
5 4 3 1 1 2 3 5 5 7 7 5 5 7 7 10 9 11 11 11 10 10 12 18 23 23 22
5 4 2 1 3 3 4 5 6 6 4 5 6 7 7 8 9 12 15 9 8 12 11 13 13 12 12
4 3 1 1 1 2 3 4 4 2 3 5 7 9 9 9 9 12 10 10 13 12 11 12 12 11 11
4 3 1 1 1 3 3 3 5 6 6 5 7 9 8 12 10 9 11 11 11 13 13 13 12 12 11
3 2 1 1 2 2 3 4 5 6 7 7 8 8 8 8 6 10 9 11 12 13 12 12 13 13 12
3 2 1 0 2 3 3 4 5 6 7 7 7 7 10 11 8 10 12 11 11 11 11 11 13 14 13
Wind_Direction
126 145 130 177 7 1 350 351 353 355 354 354 352 353 354 351 346 345 342 339 337 337 335 334 333 331 329
144 155 161 125 358 352 358 354 333 14 344 340 341 345 343 345 342 343 338 335 334 331 330 328 328 327 326
135 156 146 82 99 349 353 347 315 327 333 328 332 324 332 340 346 345 335 335 329 327 326 327 326 324 322
129 141 137 97 60 10 358 3 334 335 332 323 320 316 326 339 340 339 337 332 330 327 325 326 324 322 320
135 136 132 125 48 16 337 334 329 346 335 324 332 327 338 335 336 336 332 333 331 328 327 327 323 322 323
141 139 130 118 109 53 11 347 349 41 342 321 334 331 338 338 330 331 336 335 334 331 329 326 324 323 319
134 129 140 136 129 133 70 351 305 335 334 311 340 329 343 329 331 336 334 334 332 330 329 327 325 324 321
105 115 112 124 101 74 29 307 270 288 336 288 336 328 331 327 334 336 334 333 331 328 329 328 328 327 325
106 108 107 98 58 189 37 354 314 321 170 311 318 324 316 313 334 335 335 334 335 331 330 329 331 328 321
122 110 105 99 74 42 25 335 333 291 43 325 335 348 314 312 328 329 323 332 329 325 326 327 328 322 319
123 116 130 128 124 43 300 286 279 270 18 337 309 326 319 317 318 310 334 319 321 317 319 324 326 324 319
125 131 131 125 42 359 300 274 270 267 295 301 286 310 306 310 307 318 314 312 315 314 322 318 324 324 319
133 127 106 22 349 317 281 276 285 274 283 290 293 297 287 295 298 309 314 318 313 325 321 320 322 320 318
131 112 98 20 332 331 312 330 310 310 298 294 303 314 307 302 303 302 308 317 321 325 323 317 315 314 312
127 134 130 269 324 323 319 332 332 331 332 333 327 314 305 301 300 304 316 315 318 321 322 317 313 311 314
134 145 168 348 320 327 323 334 326 329 324 329 333 333 323 310 284 322 312 313 316 314 312 315 312 315 314
156 165 173 295 320 329 338 328 328 324 323 331 338 336 329 325 315 327 317 309 311 314 314 312 308 306 310